Temp
21 18 18 19 19 19 20 20 20 19 20 22 22 19 21 23 24 24 26 27 28 27 29 28 28 27 26 26 25 25 25 25 24 24 24 23 23 22 22 21 21 21 20 20
18 19 20 19 19 19 19 20 19 20 21 22 21 21 20 22 23 25 25 25 26 28 29 29 28 28 27 27 27 26 25 26 25 25 24 24 24 23 22 22 21 20 20 20
19 21 21 21 21 21 19 20 21 22 21 22 20 21 19 23 22 22 23 23 24 24 26 28 29 29 28 28 27 27 26 26 26 25 25 24 23 23 22 21 21 20 20 19
19 20 22 21 21 21 22 21 22 23 20 20 20 19 20 20 19 22 23 23 23 26 26 26 27 28 30 28 27 27 27 26 26 26 25 25 24 24 23 22 20 20 19 19
20 21 22 21 23 22 22 21 20 21 19 20 19 18 20 19 20 21 21 23 24 26 27 28 28 29 27 28 27 27 27 27 27 26 26 25 24 23 23 22 20 19 19 19
19 22 22 21 23 23 23 23 18 15 15 18 19 18 19 20 21 19 21 24 26 28 28 28 28 28 28 27 27 26 26 26 26 26 25 24 23 22 21 20 19 19 18 17
19 21 21 23 22 22 19 17 16 18 15 18 17 18 19 21 21 20 20 23 25 28 28 28 28 28 28 28 26 26 27 27 26 24 23 23 22 21 20 19 19 19 18 16
18 20 22 23 23 23 19 18 16 20 17 17 17 21 21 23 22 22 22 22 25 26 26 26 26 28 28 29 29 27 26 25 24 23 23 22 21 20 19 19 18 16 16 15
19 20 21 22 21 22 21 18 18 16 15 16 16 19 20 19 20 20 21 22 22 23 24 25 26 25 26 28 27 27 27 25 24 23 22 21 21 20 18 18 16 16 15 14
19 19 21 21 22 20 20 19 18 14 19 20 17 18 17 18 17 17 18 17 19 20 23 26 26 26 25 24 24 25 25 24 22 21 21 21 20 18 18 17 16 15 14 14
18 18 19 20 19 19 17 17 15 14 14 16 16 17 17 18 16 15 16 17 17 18 19 20 22 23 24 24 22 22 22 20 20 19 14 13 15 16 15 15 15 14 14 13
16 14 17 19 16 17 18 17 14 14 16 13 13 15 18 15 14 14 14 15 17 18 18 19 20 21 21 21 21 21 20 22 21 20 20 14 11 12 15 13 13 12 11 12
17 14 14 17 17 17 17 18 17 13 11 14 14 15 15 15 14 14 13 15 16 17 18 19 19 20 21 21 21 20 19 18 18 19 19 17 15 11 13 13 12 11 11 10
16 12 15 14 17 16 17 17 17 15 13 14 14 15 15 13 12 13 14 14 15 16 16 17 18 19 19 21 20 18 18 20 20 17 17 18 17 12 13 13 12 10 10 11
13 15 15 16 16 16 17 16 16 15 14 14 15 15 13 12 12 13 13 14 14 15 15 16 15 17 17 17 16 15 18 20 16 17 17 17 14 12 12 12 11 11 10 10
11 14 14 16 16 15 15 15 15 15 16 15 14 13 13 13 13 14 14 14 14 14 15 15 15 16 17 16 15 14 15 16 15 16 15 15 12 12 11 11 11 11 11 10
12 11 11 13 13 14 14 15 16 13 12 14 13 13 14 13 12 13 13 14 14 14 15 15 15 15 16 16 15 15 14 14 14 15 14 13 12 12 11 11 11 11 11 10
11 10 9 11 12 13 15 15 15 13 13 12 13 14 14 13 14 13 14 14 14 15 15 15 15 15 15 16 16 15 14 13 13 14 14 13 12 12 11 11 11 10 10 10
10 9 10 11 10 12 15 16 15 15 13 12 12 12 13 14 13 14 14 14 14 15 15 15 15 15 15 15 15 15 15 14 14 13 13 12 13 12 11 11 11 10 10 10
9 9 10 8 11 12 13 13 15 14 11 12 12 12 13 13 11 10 14 14 14 15 15 15 15 15 15 16 15 15 15 14 13 13 12 12 12 11 11 11 10 10 10 9
10 9 9 8 10 10 12 12 14 14 11 12 12 12 12 11 12 13 14 14 14 13 14 15 16 15 15 14 15 14 14 13 12 12 11 11 11 11 11 11 10 10 9 9
11 10 9 7 10 11 13 13 13 11 12 12 12 12 13 13 13 13 13 13 13 13 13 14 14 15 14 14 13 14 13 12 12 12 11 11 11 11 11 10 10 10 9 9
10 9 9 9 9 11 12 12 12 12 11 11 11 11 11 11 11 12 12 13 13 13 13 13 13 14 14 13 13 13 14 13 12 11 11 10 10 10 10 10 10 10 10 9
9 10 8 10 10 11 12 12 12 11 10 11 10 11 11 11 11 12 12 12 12 12 12 12 12 12 13 13 12 13 13 13 12 11 10 10 10 9 10 10 10 10 9 8
9 9 7 6 9 10 11 10 10 10 10 10 10 10 10 10 10 11 11 11 12 12 12 12 12 13 12 12 12 12 12 12 12 11 9 9 9 9 10 10 9 8 7 6
9 7 6 7 10 9 9 10 10 10 10 10 10 10 10 10 10 11 11 11 11 11 11 12 13 13 13 12 12 12 11 10 10 9 9 8 7 9 9 9 8 7 6 5
Height
1522 1529 1535 1529 1528 1528 1529 1532 1534 1521 1511 1511 1508 1507 1492 1486 1487 1485 1483 1482 1481 1480 1476 1479 1481 1484 1487 1490 1492 1494 1499 1503 1505 1507 1509 1510 1510 1512 1513 1515 1518 1518 1519 1520
1529 1534 1524 1522 1523 1526 1529 1530 1529 1517 1510 1511 1508 1505 1497 1488 1484 1482 1480 1479 1475 1474 1471 1470 1472 1475 1478 1479 1484 1487 1492 1497 1500 1503 1504 1505 1506 1508 1509 1511 1512 1513 1514 1514
1532 1525 1521 1521 1521 1524 1526 1528 1524 1523 1513 1510 1511 1512 1505 1487 1486 1481 1479 1477 1470 1465 1464 1465 1467 1468 1470 1472 1475 1481 1485 1493 1495 1498 1500 1501 1502 1503 1504 1505 1506 1507 1509 1509
1527 1521 1521 1521 1522 1521 1525 1516 1515 1514 1523 1535 1517 1542 1511 1499 1492 1482 1478 1474 1469 1461 1460 1461 1463 1466 1465 1466 1472 1477 1481 1488 1491 1494 1493 1494 1495 1496 1498 1499 1501 1504 1506 1505
1530 1523 1522 1525 1518 1516 1521 1513 1518 1516 1525 1526 1526 1537 1517 1503 1498 1488 1480 1473 1469 1465 1462 1461 1462 1463 1464 1466 1469 1473 1477 1482 1484 1488 1487 1488 1489 1491 1493 1496 1498 1500 1501 1498
1524 1519 1519 1516 1511 1511 1510 1513 1524 1529 1537 1550 1533 1537 1530 1514 1503 1493 1483 1477 1472 1467 1465 1465 1464 1463 1464 1467 1468 1471 1476 1478 1480 1481 1481 1482 1484 1487 1489 1491 1491 1493 1491 1492
1528 1520 1515 1513 1515 1511 1516 1533 1560 1556 1564 1556 1532 1536 1523 1503 1496 1493 1487 1479 1478 1472 1469 1468 1468 1466 1467 1468 1469 1471 1473 1475 1476 1477 1478 1480 1480 1482 1483 1483 1483 1483 1484 1485
1545 1542 1519 1512 1514 1518 1524 1531 1558 1558 1569 1558 1534 1534 1518 1498 1498 1496 1494 1488 1481 1477 1475 1471 1472 1470 1471 1470 1472 1473 1473 1473 1473 1476 1478 1479 1480 1480 1481 1481 1478 1478 1479 1480
1543 1536 1518 1515 1514 1516 1524 1540 1533 1552 1558 1560 1548 1526 1503 1505 1499 1496 1492 1489 1486 1482 1478 1476 1474 1474 1475 1473 1473 1473 1473 1472 1473 1475 1474 1475 1478 1478 1476 1475 1475 1475 1477 1478
1533 1543 1524 1518 1517 1518 1522 1527 1544 1554 1556 1552 1551 1542 1540 1519 1512 1504 1499 1496 1493 1487 1481 1477 1475 1474 1474 1474 1474 1472 1471 1471 1471 1476 1481 1482 1482 1476 1477 1475 1475 1475 1475 1475
1531 1537 1533 1523 1532 1535 1535 1540 1545 1551 1559 1566 1569 1549 1526 1520 1515 1512 1507 1504 1500 1496 1490 1485 1480 1477 1474 1472 1472 1472 1471 1474 1475 1476 1484 1491 1493 1484 1481 1477 1476 1473 1473 1474
1535 1542 1548 1539 1533 1530 1531 1539 1547 1562 1559 1563 1566 1552 1520 1517 1516 1515 1512 1508 1504 1500 1496 1490 1484 1479 1474 1471 1470 1469 1472 1470 1470 1470 1466 1481 1483 1482 1473 1476 1476 1475 1475 1477
1537 1549 1562 1550 1542 1533 1539 1538 1540 1549 1556 1557 1563 1549 1520 1518 1519 1519 1516 1511 1505 1500 1495 1490 1484 1479 1475 1472 1469 1467 1467 1464 1467 1468 1470 1468 1463 1468 1472 1472 1475 1476 1478 1477
1536 1549 1552 1564 1548 1544 1544 1542 1539 1546 1560 1552 1551 1539 1529 1530 1526 1522 1518 1514 1509 1503 1499 1494 1488 1483 1477 1472 1469 1467 1468 1468 1469 1471 1471 1467 1463 1463 1466 1465 1471 1475 1478 1478
1541 1549 1547 1543 1543 1542 1541 1541 1540 1544 1542 1547 1538 1538 1539 1536 1532 1526 1521 1516 1510 1506 1502 1498 1493 1487 1482 1476 1472 1472 1471 1470 1471 1468 1470 1467 1465 1465 1466 1468 1471 1474 1477 1477
1545 1551 1549 1547 1541 1544 1543 1537 1536 1535 1534 1535 1537 1539 1537 1535 1532 1526 1522 1518 1513 1509 1505 1501 1497 1492 1486 1481 1476 1474 1474 1474 1472 1468 1471 1469 1470 1470 1472 1469 1473 1473 1475 1475
1547 1552 1558 1559 1549 1546 1550 1534 1532 1539 1539 1537 1541 1537 1533 1532 1529 1528 1525 1521 1517 1513 1510 1505 1501 1496 1490 1485 1481 1477 1474 1474 1472 1470 1470 1471 1472 1473 1473 1473 1474 1474 1474 1473
1549 1554 1559 1562 1553 1560 1535 1528 1529 1536 1538 1537 1535 1533 1532 1530 1529 1528 1525 1521 1518 1514 1510 1507 1503 1499 1494 1489 1484 1479 1476 1474 1471 1469 1467 1470 1471 1472 1472 1473 1474 1473 1472 1471
1544 1552 1559 1562 1565 1551 1532 1531 1534 1534 1538 1535 1534 1532 1531 1527 1526 1525 1523 1520 1517 1514 1511 1507 1503 1499 1493 1491 1486 1483 1475 1479 1472 1470 1469 1470 1468 1471 1472 1472 1472 1472 1470 1469
1546 1548 1555 1566 1561 1560 1539 1535 1531 1531 1543 1536 1534 1531 1529 1526 1530 1525 1521 1519 1516 1512 1509 1505 1501 1497 1492 1488 1487 1482 1477 1480 1476 1473 1471 1471 1470 1472 1471 1470 1470 1469 1468 1469
1553 1554 1558 1563 1561 1551 1538 1533 1529 1539 1549 1538 1537 1536 1533 1531 1530 1525 1522 1518 1514 1511 1508 1505 1500 1496 1492 1487 1483 1482 1479 1477 1474 1474 1472 1472 1471 1471 1471 1469 1469 1469 1466 1466
1552 1556 1560 1563 1559 1554 1537 1534 1539 1542 1539 1538 1536 1534 1531 1529 1526 1523 1519 1515 1512 1508 1505 1502 1497 1493 1488 1486 1480 1477 1476 1473 1472 1471 1471 1470 1469 1468 1468 1468 1468 1467 1467 1466
1554 1552 1555 1555 1550 1540 1540 1540 1539 1538 1536 1534 1533 1531 1529 1526 1522 1520 1516 1513 1509 1505 1501 1498 1495 1490 1486 1485 1480 1473 1471 1470 1469 1469 1467 1466 1466 1467 1467 1468 1468 1466 1465 1464
1548 1547 1549 1547 1541 1539 1539 1538 1537 1535 1533 1531 1530 1527 1525 1520 1518 1514 1512 1508 1504 1500 1497 1495 1491 1488 1485 1482 1478 1471 1467 1466 1466 1465 1464 1465 1466 1464 1466 1466 1466 1465 1464 1463
1547 1546 1546 1546 1538 1537 1535 1535 1534 1533 1530 1526 1524 1521 1518 1515 1511 1509 1505 1502 1499 1496 1493 1490 1486 1483 1481 1479 1473 1467 1464 1463 1461 1462 1463 1464 1464 1466 1465 1465 1465 1464 1463 1461
1542 1542 1546 1543 1538 1537 1533 1530 1527 1525 1522 1520 1517 1514 1512 1509 1506 1503 1500 1497 1494 1491 1488 1484 1482 1479 1477 1474 1470 1463 1460 1460 1461 1461 1462 1464 1466 1466 1469 1465 1464 1464 1462 1461
Wind_Speed
5 5 2 4 4 4 2 3 3 6 5 3 4 7 12 19 7 5 12 14 22 32 32 40 40 41 40 41 42 42 39 35 37 36 34 34 34 34 33 31 31 31 28 29
6 1 5 5 4 5 4 3 7 6 3 3 7 10 7 8 14 19 19 19 17 26 32 35 40 45 43 43 40 45 43 41 39 39 39 38 36 35 35 33 32 33 30 29
4 4 6 3 3 2 3 4 3 5 5 3 7 7 8 8 8 17 14 15 13 19 28 33 37 37 42 47 46 44 45 40 40 41 42 41 40 39 38 36 33 32 31 29
3 4 4 5 5 3 4 3 4 2 3 2 4 3 6 8 11 15 26 18 16 12 8 18 24 33 34 39 46 42 43 39 39 40 43 44 43 42 40 37 33 32 31 31
6 3 4 6 4 4 6 5 4 2 2 2 6 4 8 7 9 14 19 31 28 23 14 9 13 20 28 30 36 39 39 38 39 41 44 43 45 43 41 36 34 34 34 40
7 4 3 6 3 4 2 1 5 4 3 3 5 4 6 4 6 10 14 28 34 35 21 16 13 9 14 18 22 28 32 34 36 38 43 44 44 41 40 40 39 37 40 39
6 3 4 2 4 1 7 7 4 5 5 4 1 2 7 6 7 5 13 25 26 29 28 18 13 8 8 9 13 19 24 29 32 34 37 36 35 34 34 33 34 32 28 29
2 5 6 6 1 1 3 5 5 2 2 5 4 2 5 2 18 18 23 24 25 26 26 20 16 16 14 8 8 13 18 24 26 25 25 27 30 29 28 28 26 20 17 19
2 4 4 5 4 3 1 6 2 5 2 2 4 6 10 10 16 24 26 32 34 32 28 24 19 16 15 13 13 9 16 19 20 20 19 18 21 23 19 20 17 13 13 13
1 3 1 6 3 11 7 3 4 4 1 3 5 5 4 12 12 11 19 29 35 35 31 26 23 20 18 19 18 17 18 18 15 14 19 22 19 20 21 20 17 10 9 12
2 2 6 2 6 1 5 4 4 4 3 4 1 5 5 5 6 10 15 25 29 31 33 32 26 22 19 19 19 21 19 10 15 9 23 33 35 34 25 14 11 9 10 9
3 3 2 1 7 2 3 3 4 4 5 1 3 6 2 5 16 21 23 27 28 29 32 31 29 26 22 20 18 18 14 19 16 13 11 34 37 42 22 10 5 4 3 3
3 2 3 8 5 4 5 3 3 3 3 4 4 5 3 20 18 22 22 28 30 33 37 37 36 33 27 25 18 19 15 17 12 17 20 18 24 20 15 9 7 3 0 2
2 3 5 6 5 2 3 4 1 3 2 3 5 6 11 10 12 19 25 27 30 33 35 37 38 36 33 25 22 17 16 17 15 13 20 19 4 8 5 5 3 1 1 2
4 0 2 3 4 2 3 7 4 6 7 5 4 3 4 6 7 14 20 27 33 36 35 36 39 38 38 34 28 20 18 18 9 12 22 5 1 4 1 2 1 1 1 2
4 2 1 3 3 4 4 9 9 6 1 3 3 3 2 1 7 19 23 27 30 34 37 36 37 37 37 36 32 23 19 13 6 17 3 3 2 1 2 2 3 2 1 3
1 3 3 4 4 6 7 5 2 5 3 2 2 4 6 2 9 13 17 20 23 28 32 35 38 36 34 33 32 27 18 14 10 19 6 5 1 2 2 3 2 1 4 6
3 3 2 3 3 3 5 4 2 9 2 3 2 2 6 8 1 10 14 18 22 26 29 32 35 38 32 30 28 27 24 19 15 15 6 4 1 3 1 0 2 4 6 7
5 4 2 2 2 6 5 3 3 2 2 2 2 3 5 5 3 5 12 14 20 24 30 30 34 37 37 31 26 23 22 19 14 7 2 2 5 1 1 3 4 5 7 10
5 3 4 2 2 4 4 7 16 1 1 1 4 3 3 4 2 4 14 14 19 25 30 31 29 31 35 39 29 22 14 17 11 7 4 4 2 3 2 3 3 6 7 6
2 2 3 2 3 6 5 14 7 1 3 4 7 7 8 3 5 14 18 20 22 26 31 33 28 26 30 34 34 29 17 14 12 11 6 3 4 5 2 3 5 5 5 9
3 2 2 2 2 5 11 6 4 2 4 9 11 14 15 18 20 21 24 27 30 29 26 25 27 27 29 33 33 29 23 14 14 11 6 5 4 4 2 2 3 6 9 12
2 3 3 6 5 3 4 1 3 3 8 14 19 22 22 22 25 24 25 26 28 28 27 25 26 29 33 30 30 31 19 13 12 10 7 7 5 2 2 2 6 8 10 11
1 1 2 1 3 6 10 17 15 10 19 20 28 31 30 33 31 30 31 32 34 35 35 33 29 30 31 28 30 29 19 11 11 14 9 8 6 2 3 6 8 8 7 9
4 1 2 5 10 16 10 18 18 20 30 34 30 26 28 31 33 32 34 36 35 32 30 27 21 24 26 24 29 25 18 15 13 12 9 9 2 2 4 4 4 5 8 12
7 5 3 5 17 14 23 26 30 28 27 24 27 31 28 28 25 26 28 26 27 23 21 22 21 22 18 22 28 24 14 4 8 10 10 5 2 6 4 2 4 7 11 15
Wind_Direction
19 54 264 246 206 211 244 225 259 268 264 287 303 282 293 321 308 265 251 244 251 245 250 247 248 246 244 245 245 240 242 243 239 237 239 241 243 244 246 247 247 250 253 253
17 277 228 243 238 213 220 289 286 284 266 167 323 306 318 324 319 319 310 316 284 249 245 244 245 244 241 245 243 247 242 244 244 245 245 245 247 252 254 255 252 250 250 250
153 243 286 201 292 251 209 190 242 236 337 11 334 339 330 325 326 348 2 328 308 264 249 244 245 243 244 243 243 244 250 244 249 250 249 248 251 253 256 256 256 251 252 258
237 300 310 352 333 136 346 236 249 289 62 254 28 272 314 322 326 6 355 354 8 357 286 255 247 251 247 247 245 246 249 252 251 253 254 251 252 255 259 259 261 257 258 268
268 300 322 329 231 179 237 62 352 31 85 30 343 65 279 353 336 332 330 3 20 27 16 331 274 262 266 258 254 250 249 253 254 252 252 252 251 255 256 259 264 264 258 264
235 275 231 224 273 208 96 44 41 53 55 29 284 116 302 312 291 306 316 0 18 18 9 5 352 334 304 286 274 261 254 259 257 254 252 250 252 255 255 260 260 257 264 257
334 282 283 286 336 39 63 51 352 7 9 234 345 34 235 288 302 276 305 329 0 11 8 2 351 6 345 330 302 279 268 265 262 258 256 254 256 262 266 263 264 276 274 247
39 347 16 323 207 158 78 128 141 287 269 275 319 276 256 243 340 344 5 12 15 17 16 12 356 15 0 21 347 309 290 278 273 269 264 262 263 264 276 288 281 273 260 266
37 294 320 17 4 83 88 38 175 106 354 23 296 306 311 9 5 6 358 3 5 3 4 5 360 346 328 336 319 296 286 290 286 282 274 270 285 295 310 308 283 270 264 231
154 331 10 298 40 24 90 154 24 14 325 298 306 300 266 347 338 342 354 3 6 7 4 360 347 337 325 321 310 294 286 282 276 293 311 316 316 323 320 308 288 270 241 219
64 108 291 45 19 359 359 9 39 106 119 167 296 274 205 283 318 336 351 15 14 13 12 10 359 350 323 301 288 286 285 275 294 306 40 14 352 344 315 294 279 246 219 220
348 129 4 312 296 203 93 120 119 102 292 135 153 272 90 10 32 29 18 19 21 24 19 13 8 1 347 329 312 292 291 283 279 273 262 319 311 311 319 292 257 252 160 157
358 15 26 348 349 8 55 38 85 97 84 214 157 266 90 23 22 24 22 26 28 26 23 19 16 6 350 346 330 303 279 278 285 292 325 304 328 273 294 298 297 343 191 168
110 95 155 198 223 204 329 320 312 126 132 252 232 288 349 6 9 11 23 28 28 28 24 19 16 14 6 349 346 311 295 297 318 309 336 348 89 206 253 326 354 133 145 345
71 323 331 275 240 242 251 262 212 208 227 188 260 323 2 350 341 3 20 27 28 28 24 21 18 14 12 12 6 348 333 331 331 330 331 78 83 193 309 313 158 157 243 357
3 289 21 291 314 358 273 257 253 239 216 288 341 94 266 339 37 33 31 31 28 26 22 16 14 13 11 10 7 358 345 320 282 355 120 349 280 210 298 165 168 157 54 14
75 124 78 260 344 331 308 277 334 99 39 220 214 221 233 257 49 26 27 33 30 25 21 17 11 4 3 4 3 356 333 310 273 335 268 305 333 329 277 177 175 75 19 357
155 98 100 244 345 222 246 307 160 120 124 334 292 281 286 296 249 24 27 14 15 12 9 6 0 -0 0 355 357 359 350 327 313 322 248 257 90 325 2 338 325 357 346 330
181 123 157 193 213 293 330 69 82 302 269 302 229 348 338 331 178 253 6 14 11 10 360 351 348 350 353 355 351 355 11 347 352 0 311 280 339 329 286 6 342 331 323 321
69 74 125 121 185 229 241 323 320 336 298 296 136 113 50 43 18 279 343 346 348 347 354 344 341 341 344 344 343 336 354 335 340 337 307 296 252 250 294 347 321 314 325 317
346 21 192 165 236 285 302 319 322 212 254 325 331 336 353 343 284 307 316 321 322 329 330 333 322 327 324 331 335 323 311 315 317 306 283 263 253 245 214 300 296 319 325 327
204 163 207 123 225 279 355 5 21 250 340 336 334 320 314 319 312 318 320 309 308 312 315 322 323 316 318 326 332 316 304 301 302 299 265 251 217 195 266 288 356 349 328 321
316 177 193 179 228 222 26 359 256 319 339 342 336 331 326 313 303 303 304 310 316 315 312 305 308 303 306 321 329 315 300 279 293 268 240 211 218 211 341 350 334 334 335 329
357 211 214 41 277 241 267 297 282 264 320 313 314 312 304 300 300 301 298 301 309 306 308 306 299 306 308 313 324 316 292 274 273 250 229 221 236 183 289 329 340 337 335 338
208 222 190 253 289 313 288 317 312 290 303 302 307 312 306 300 294 294 290 291 295 300 305 310 309 297 302 312 328 314 290 270 245 235 213 224 262 257 283 319 338 353 352 350
221 212 176 255 301 296 300 310 311 311 312 315 315 316 316 315 307 304 302 299 298 307 328 322 311 311 310 317 333 319 293 250 245 226 209 181 179 261 264 341 27 7 355 351